Regional Weather Roundup
Issued by NWS Boston, MA

Current Version | Previous Version | Text Only | Print | Product List | Glossary On
Versions: 1 2 3 4 5 6 7 8 9 10 11 12 13 14 15 16 17 18 19 20 21 22 23 24 25 26 27 28 29 30 31 32 33 34 35 36 37 38 39 40 41 42 43 44 45 46 47 48 49 50
449
ASUS41 KBOX 291110
RWRBOX

REGIONAL WEATHER ROUNDUP
NATIONAL WEATHER SERVICE TAUNTON MA
700 AM EDT THU SEP 29 2016

NOTE:  "FAIR" INDICATES FEW OR NO CLOUDS BELOW 12,000 FEET WITH NO
SIGNIFICANT WEATHER AND/OR OBSTRUCTIONS TO VISIBILITY.

MAZALL-291200-
EASTERN MASSACHUSETTS

CITY           SKY/WX    TMP DP  RH WIND       PRES   REMARKS
BOSTON         PTCLDY    55  48  76 NE16      30.42R
BEVERLY        PTCLDY    54  47  77 NE10G17   30.41R
LAWRENCE       CLEAR     50  47  89 N10       30.45R
BEDFORD        CLOUDY    52  46  80 N9        30.42R
BLUE HILL        N/A     51  47  86 NE14G24   30.39R
NORWOOD        PTCLDY    55  47  74 N10G16    30.40R
MARSHFIELD     PTCLDY    57  50  77 NE13G22   30.39R
PLYMOUTH       CLOUDY    56  51  84 NE15G24   30.39R
TAUNTON        CLOUDY    57  50  77 NE10G17   30.38R
NEW BEDFORD    CLOUDY    58  52  80 NE13      30.36R
$$

MAZALL-291200-
CAPE COD AND THE ISLANDS

CITY           SKY/WX    TMP DP  RH WIND       PRES   REMARKS
FALMOUTH       CLOUDY    57  54  88 NE16      30.36S
HYANNIS        CLOUDY    58  53  84 NE15G24   30.34R
CHATHAM        CLOUDY    59  55  87 NE12      30.36R
PROVINCETOWN   MOCLDY    57  53  86 NE17G26   30.38R
NANTUCKET      CLOUDY    59  56  89 NE24G32   30.32R
MARTHAS VNYRD  CLOUDY    59  55  87 NE24G30   30.33R
$$

MAZALL-291200-
CENTRAL AND WESTERN MASSACHUSETTS

CITY           SKY/WX    TMP DP  RH WIND       PRES   REMARKS
WORCESTER      CLOUDY    50  45  83 NE13G22   30.40R
FITCHBURG      CLEAR     50  45  83 N7        30.45R
ORANGE         CLEAR     49  46  90 NE5       30.43R
SPRINGFIELD    NOT AVBL
WESTFIELD      CLOUDY    55  48  77 NE8       30.41R
NORTH ADAMS    CLOUDY    53  43  68 E16G26    30.40R
PITTSFIELD     PTCLDY    50  42  74 E10       30.39R
$$

RIZALL-291200-
RHODE ISLAND

CITY           SKY/WX    TMP DP  RH WIND       PRES   REMARKS
PROVIDENCE     CLOUDY    57  49  74 NE16G24   30.39R
NEWPORT        CLOUDY    57  52  83 N14G26    30.36R
BLOCK ISLAND   CLOUDY    59  55  87 NE18G28   30.34R
SMITHFIELD     CLOUDY    54  47  77 NE13      30.40R
WESTERLY       CLOUDY    59  50  72 NE10      30.35R
$$

CTZALL-291200-
CONNECTICUT

CITY           SKY/WX    TMP DP  RH WIND       PRES   REMARKS
BRADLEY INTL   CLOUDY    56  47  71 N12       30.40R
HARTFORD       CLOUDY    56  49  77 N10       30.38R
BRIDGEPORT     CLOUDY    59  50  72 NE13      30.34R
DANBURY        CLOUDY    55  48  77 NE8       30.36R
GROTON         CLOUDY    60  53  77 NE15G24   30.34R
NEW HAVEN      CLOUDY    57  50  77 NE9       30.35R
CHESTER        CLOUDY    57  52  82 NE10      30.35R
MERIDEN        CLOUDY    58  48  69 NE10      30.37R
WILLIMANTIC    CLOUDY    57  50  77 NE13      30.38R
OXFORD         CLOUDY    54  45  71 NE15G24   30.36R
$$

MEZ002-015-021-024-NHZ003-005-008-011-012-014-VTZ005-008-291200-
NORTHERN NEW ENGLAND

CITY           SKY/WX    TMP DP  RH WIND       PRES   REMARKS
PORTLAND ME    PTCLDY    46  42  86 N7        30.49R
BANGOR ME      MOCLDY    43  41  93 N10       30.51R
CONCORD NH     MOCLDY    39  37  92 CALM      30.47S
MANCHESTER NH  PTCLDY    49  43  80 N5        30.45R
NASHUA NH      CLEAR     49  46  90 NW5       30.46R
PORTSMOUTH NH  PTCLDY    48  43  82 N13       30.45R
JAFFREY NH     CLEAR     47  43  86 VRB3      30.44R
KEENE NH       PTCLDY    46  45  96 N5        30.45R
BURLINGTON VT  MOCLDY    50  46  86 E5        30.45R
MT. WASHINGTON PTCLDY    37  32  81 E15         N/A  WCI  28
$$

NYZ052-076-291200-
EASTERN NEW YORK

CITY           SKY/WX    TMP DP  RH WIND       PRES   REMARKS
ALBANY         MOCLDY    50  47  89 CALM      30.40R
NEW YORK CITY  CLOUDY    63  55  75 NE22G31   30.30S
$$

ANZALL-291200-
MARINE OBSERVATIONS

STATION/POSITION TIME  TEMP    WIND        PRES    VSBY  WAVE
                       AIR SEA DIR/SP/G                  HT/PER
                 (UTC) (F)     (DEG/KT/KT) (MB)    (MI)  (FT/S)
BOSTON BUOY      1050   57 62   40/ 19/ 25 1029.1R        10/ 8
BUZZARDS BAY     1000   59      30/ 26/ 28 1027.0R
NANTUCKET SOUND  1050   60 62   30/ 23/ 31 1026.3R         4/ 5
MASS BAY-STELLWA 1004   57 61   30/ 19/ 23 1028.8R  1 7/8  8/ 8
ISLE OF SHOALS   1100   53      10/ 19/ 22 1030.5R
S OF BLOCK IS    1025      64                N/A           8/ 6
$$

......................KEY.........................
  SKY/WX - SKY CONDITION/PRESENT WEATHER
  TMP    - TEMPERATURE IN FAHRENHEIT
  DWPT   - DEWPOINT IN FAHRENHEIT
  RH     - RELATIVE HUMIDITY IN PERCENT
  WIND   - DIRECTION AND SPEED IN MPH
  PRES   - MEAN SEA LEVEL PRESSURE IN INCHES OF HG
  WCI    - WIND CHILL INDEX
  VSB    - VISIBILITY IN MILES
  HX     - HEAT INDEX
  TC     - TEMPERATURE IN CELSIUS
  VRB    - VARIABLE WIND DIRECTION
  N/A    - NOT AVAILABLE




USA.gov is the U.S. government's official web portal to all federal, state and local government web resources and services.